RH
17 15 15 15 17 19 20 23 24 26 27 29 29 30 31 32 33 33 32 32 32 32 31 30 29 27 26 25 24 25 25 26 27 27 26 25 23 21 18 15 11 9 9 8 7 6 6 6 6 7 8 9 10 9 7 6 5 6 7 8 9 9 10 10 10 10 10 11 11 13 13 10 9 8 9 11 13 15 16 17 18 18 19 19 19
17 16 15 15 17 18 21 22 23 25 27 29 29 30 30 31 32 32 32 32 32 32 32 31 29 28 26 24 24 24 24 25 26 27 27 27 25 23 21 18 15 11 8 8 9 8 7 7 6 6 6 6 6 6 6 7 7 8 8 9 9 9 9 10 10 10 10 11 11 11 10 9 9 9 11 12 14 16 18 19 20 20 21 21 21
17 16 15 15 16 17 20 21 23 25 27 29 30 30 29 30 31 32 31 31 31 31 32 31 30 28 27 25 24 23 24 24 25 26 27 27 27 26 24 21 18 14 10 7 7 8 8 8 8 7 6 7 7 7 8 8 9 8 9 9 8 8 8 8 8 9 10 10 10 9 9 9 10 11 13 14 16 18 19 20 21 21 22 22 22
17 16 16 16 16 16 19 21 22 23 26 28 29 30 29 30 30 31 31 31 30 30 31 30 29 28 26 25 23 23 23 23 24 25 26 27 27 27 26 24 22 19 15 10 7 6 7 7 8 8 8 8 8 8 8 8 9 9 9 9 8 7 6 7 7 8 9 9 9 8 9 11 12 14 15 16 17 18 19 20 20 21 22 22 22
17 16 16 16 16 16 18 19 21 22 24 26 28 29 29 29 29 30 29 30 29 29 30 29 28 27 25 24 23 22 22 22 23 24 25 26 27 27 27 26 24 22 20 16 11 7 6 5 6 6 7 7 7 7 9 10 11 12 12 12 10 8 6 6 6 6 7 7 8 10 11 13 15 16 16 17 17 18 18 19 19 20 21 21 21
18 16 16 16 16 15 17 18 20 21 22 25 27 28 29 29 29 29 28 28 28 29 29 27 26 25 24 23 22 22 22 22 22 23 24 25 26 27 27 27 26 25 23 21 17 13 9 7 6 6 6 6 7 8 10 12 14 17 17 14 11 8 7 6 7 7 7 8 9 11 12 14 16 17 18 18 18 19 19 20 20 20 21 21 22
19 17 16 15 16 15 16 17 18 19 21 23 25 27 28 28 28 28 27 27 27 28 28 26 25 24 23 22 22 21 21 21 22 22 23 24 25 26 27 27 27 27 25 24 21 18 15 13 11 10 10 10 11 12 14 17 21 24 23 18 13 10 9 8 8 8 9 10 11 12 13 15 16 17 19 19 20 21 21 22 22 23 23 23 24
22 18 16 15 16 16 16 16 17 18 19 21 23 25 27 28 28 27 27 27 27 27 26 25 24 22 21 21 21 20 20 21 21 22 22 23 24 25 26 27 27 27 26 26 24 22 21 19 19 18 18 18 18 19 21 25 29 30 25 19 14 13 12 12 11 11 12 12 13 14 15 16 17 18 19 20 21 22 23 23 23 24 24 25 25
25 20 18 17 16 16 16 16 16 17 18 20 21 23 25 27 27 27 27 27 26 26 25 24 23 21 20 20 20 20 20 20 21 21 22 22 23 24 25 26 27 27 27 26 26 25 24 24 24 25 25 25 25 25 27 29 31 32 26 20 18 19 18 17 17 16 16 16 16 17 18 18 19 20 21 22 23 23 24 24 24 24 25 25 25
27 24 22 20 17 16 16 15 16 16 17 18 20 22 23 24 25 26 26 26 26 25 24 22 21 20 19 19 20 20 20 20 20 21 21 22 22 23 24 25 26 26 27 27 27 26 26 26 26 27 27 27 27 27 28 29 29 31 30 26 24 23 23 23 23 22 22 22 23 23 23 23 23 24 24 24 24 25 24 24 25 25 25 25 25
29 27 25 23 20 18 16 16 15 16 17 18 19 20 22 23 24 24 25 25 25 24 22 21 20 19 19 19 20 20 20 20 20 20 21 21 22 22 23 24 25 26 26 27 26 26 26 26 26 26 26 26 26 26 26 26 26 28 31 31 31 30 29 27 25 26 26 26 26 26 26 26 26 26 26 26 26 26 26 26 26 26 26 26 26
30 28 27 25 23 21 19 17 15 15 16 17 18 19 21 21 22 23 23 23 23 22 21 20 19 18 18 18 20 20 20 20 19 20 20 21 21 22 23 23 24 25 25 26 26 26 26 26 26 25 26 25 25 25 25 24 25 26 28 30 32 34 34 31 28 28 28 27 27 27 27 27 27 27 27 27 27 27 27 27 27 27 27 27 27
32 30 29 28 27 25 22 19 16 15 15 16 17 18 20 20 21 21 21 22 21 21 20 19 18 18 18 18 20 21 20 19 19 20 20 21 21 22 22 23 23 24 24 25 26 26 26 26 26 25 25 25 25 25 25 25 25 25 25 26 27 28 30 30 30 31 31 29 28 28 27 27 27 27 27 27 27 27 27 27 27 28 29 29 29
32 32 31 31 30 29 26 22 18 15 14 15 17 18 19 20 20 20 20 20 20 19 18 18 18 19 18 18 20 21 21 20 20 20 20 21 21 21 21 22 23 23 23 24 25 25 26 26 26 26 25 25 25 24 24 24 25 25 25 25 25 25 26 26 28 29 31 32 31 29 28 28 27 26 26 26 26 27 27 28 29 30 32 34 35
28 30 30 30 30 32 31 27 20 16 14 15 16 17 18 19 19 19 19 19 19 18 17 17 18 19 18 19 20 21 22 20 20 20 20 20 20 21 21 22 22 22 23 24 24 24 25 25 25 25 25 25 24 24 24 24 24 24 25 25 25 25 25 25 26 26 27 29 29 28 28 29 30 29 28 27 25 25 26 26 27 29 31 34 38
28 29 29 29 29 30 33 33 26 17 14 14 15 16 17 18 18 18 18 18 18 17 16 16 18 20 19 19 21 23 23 21 20 20 20 20 20 20 21 21 22 22 23 23 24 24 24 25 25 25 25 25 24 24 25 26 25 24 24 25 25 25 25 26 26 26 26 26 27 27 27 29 31 32 31 31 30 28 29 30 30 29 29 30 32
30 32 31 28 24 23 30 38 34 21 14 14 14 15 17 17 17 17 18 18 17 17 16 16 19 20 20 20 22 24 24 22 20 20 20 20 20 20 21 21 21 22 22 23 23 23 24 24 24 24 24 24 24 24 25 27 28 26 26 29 29 26 25 29 33 33 31 31 31 32 31 31 32 33 33 34 36 37 38 39 38 37 36 35 33
33 33 29 24 22 23 31 41 44 32 16 13 14 15 16 16 17 17 17 17 16 16 15 17 20 22 22 21 23 25 24 22 21 20 20 20 20 20 21 21 21 21 22 22 23 23 23 23 24 24 24 24 24 24 25 27 29 30 32 36 36 32 29 33 44 48 44 42 42 44 43 42 40 39 38 39 42 44 43 43 43 43 43 42 41
31 30 26 25 29 33 36 43 51 45 25 13 13 14 15 16 16 16 16 17 16 15 16 18 21 24 24 23 24 26 25 23 21 21 21 21 21 21 21 21 21 21 22 22 22 23 23 23 23 23 23 23 24 24 25 26 28 30 32 36 37 36 34 38 52 60 59 58 59 60 61 61 55 47 44 44 45 46 46 47 48 48 47 46 45
27 28 30 34 37 38 39 43 50 52 36 16 13 14 14 15 15 16 17 16 16 15 16 19 23 27 27 25 26 27 27 25 23 22 22 22 22 21 21 21 21 21 21 22 22 22 22 22 23 23 23 23 23 23 24 25 26 27 28 30 31 32 32 36 46 55 61 63 65 67 70 72 68 60 54 51 50 50 52 56 59 60 60 58 57
27 33 36 36 35 36 38 40 44 51 42 20 13 14 13 15 15 16 17 16 15 15 17 20 24 28 29 28 28 29 29 27 25 23 22 22 23 22 21 21 21 21 22 22 22 22 22 22 23 23 23 23 24 24 24 24 25 25 25 25 26 27 28 31 36 43 51 58 64 67 68 71 73 71 69 66 64 62 63 66 69 69 70 70 70
32 36 34 31 33 36 37 38 41 48 43 25 14 13 13 14 14 15 16 15 14 16 17 21 26 29 31 30 30 31 31 30 26 24 24 24 25 24 22 22 22 22 22 22 22 22 22 23 23 23 23 23 23 24 24 24 24 24 25 25 25 27 31 35 38 42 48 56 63 63 60 63 67 70 72 74 74 72 72 71 71 70 70 70 71
32 32 26 24 30 36 38 41 44 46 42 27 15 12 13 13 14 14 14 14 15 16 18 22 27 31 33 32 32 33 32 31 28 25 26 27 27 26 24 23 23 23 23 23 24 23 23 24 24 24 24 24 25 24 24 24 25 25 27 28 29 33 39 44 46 48 51 56 57 51 48 52 59 64 65 67 67 68 67 64 62 60 59 58 61
28 25 22 20 25 35 40 43 45 44 38 24 15 13 13 13 13 13 14 14 15 17 19 24 30 33 35 34 34 33 32 32 30 29 28 28 27 26 26 26 26 25 24 25 26 26 27 29 30 30 30 30 30 28 27 27 27 30 35 38 41 45 49 51 51 50 49 49 44 39 40 48 58 63 63 64 64 63 61 57 55 54 55 57 60
24 22 22 17 19 33 41 43 44 40 31 21 14 13 13 13 13 13 14 14 16 18 20 26 33 35 36 36 36 34 33 34 34 33 30 28 28 28 29 31 33 31 29 29 30 32 36 41 43 44 45 46 46 44 42 41 42 45 49 52 53 55 54 52 49 45 42 42 41 39 40 44 52 58 59 60 60 59 58 55 52 50 53 58 64
24 22 22 18 17 29 39 42 43 37 27 19 14 13 13 13 13 14 14 15 17 18 22 29 35 37 38 39 38 35 35 36 37 36 31 29 30 32 35 40 45 43 38 36 38 45 51 55 56 57 59 62 62 62 61 60 59 58 59 58 56 53 50 46 41 37 37 40 44 45 45 44 45 48 50 50 49 48 46 44 48 51 53 57 63
29 25 23 26 26 31 39 41 42 39 28 19 16 14 14 13 13 14 15 16 18 20 25 32 37 40 40 41 39 37 37 37 38 36 31 30 33 38 45 52 56 56 55 54 57 60 60 57 56 57 57 57 57 56 56 55 54 53 52 49 46 42 40 38 36 36 37 40 44 47 49 49 47 46 46 46 44 43 38 38 49 56 60 64 65
33 29 29 34 36 37 41 41 43 43 33 25 20 17 15 14 14 15 16 17 19 22 28 34 40 42 43 43 40 39 40 40 39 35 31 32 37 45 54 61 64 64 65 64 62 57 52 48 46 44 42 40 39 38 37 37 37 37 37 37 36 36 37 38 40 41 41 41 43 46 49 49 48 47 46 45 43 42 36 38 50 54 61 67 66
34 32 36 41 42 43 42 42 46 47 40 30 22 17 15 14 14 15 16 18 21 25 32 39 43 44 46 46 43 43 44 43 40 34 32 35 39 49 58 62 64 63 61 57 50 44 41 37 33 29 27 28 28 28 27 27 26 26 29 30 31 33 34 37 38 38 38 39 41 43 46 47 48 46 44 42 40 39 33 39 55 60 67 70 68
34 31 39 49 51 46 42 45 51 50 42 31 21 16 15 15 16 17 18 21 24 29 37 44 46 47 48 48 47 47 47 44 37 32 33 35 42 55 61 62 62 57 50 45 39 34 30 26 23 23 23 23 24 25 27 26 26 25 25 24 23 23 22 23 24 25 28 31 32 35 39 41 43 42 42 43 43 43 37 39 51 61 72 75 73
33 32 44 57 56 45 40 46 51 46 36 26 18 16 16 18 19 20 22 25 29 34 43 48 49 50 50 50 49 49 48 42 34 30 31 37 49 60 63 61 55 45 37 34 31 28 24 22 22 24 24 24 24 24 25 24 23 21 19 17 16 14 14 13 14 16 19 23 26 30 35 40 44 47 49 52 52 51 49 50 57 65 74 79 78
34 36 50 63 54 39 37 39 38 32 25 21 20 23 26 29 34 38 39 39 41 44 48 51 51 54 54 51 50 49 45 37 30 26 29 43 58 62 59 53 44 35 29 28 26 24 22 22 25 28 28 27 24 22 20 17 16 18 18 15 14 15 16 17 19 21 24 27 31 36 40 46 51 55 56 57 58 59 60 61 66 69 70 72 70
36 40 55 65 54 40 38 36 31 29 29 34 41 46 49 53 58 58 54 51 51 50 51 54 55 57 55 51 50 48 40 32 26 25 38 57 63 59 54 47 37 29 26 27 26 24 26 29 31 30 26 21 18 16 13 12 16 21 19 14 14 18 20 21 23 25 27 30 34 38 41 45 48 52 54 56 58 61 61 58 59 61 60 57 57
38 46 60 68 60 48 45 44 42 44 47 54 63 69 69 68 66 60 54 54 53 52 54 57 58 57 53 50 49 44 37 30 29 39 57 66 61 57 51 40 29 26 33 38 34 31 33 31 27 21 17 14 12 11 11 14 19 19 15 13 15 18 20 21 22 23 25 28 31 34 37 40 42 43 44 48 52 55 56 54 57 59 57 54 54
42 54 67 72 66 57 55 55 55 56 57 59 67 73 75 73 66 59 57 57 55 54 54 56 56 54 51 49 46 40 34 32 42 59 69 64 59 55 43 31 31 39 48 47 40 38 33 24 18 15 13 12 11 12 13 15 16 13 11 12 14 15 16 19 21 21 23 24 26 28 32 35 36 36 36 40 44 48 50 51 53 55 56 58 58
54 63 70 72 68 63 61 61 60 59 58 59 65 69 75 75 66 60 59 56 55 52 51 52 53 52 50 47 42 36 34 40 56 69 70 62 54 44 34 35 43 51 50 43 38 35 27 18 15 15 13 12 12 13 14 14 12 11 11 11 12 12 12 14 16 17 20 22 22 22 23 24 24 26 30 34 38 41 43 44 45 47 50 53 55
68 70 72 73 71 67 63 63 63 59 59 61 64 69 78 78 67 61 57 52 52 50 49 51 52 52 50 45 40 33 36 51 65 71 69 56 41 35 36 40 44 46 41 32 27 24 19 16 15 14 13 13 13 13 13 13 13 13 12 13 13 12 12 12 12 14 15 16 16 16 15 15 16 18 21 25 29 33 37 39 40 42 43 45 46
75 73 75 77 75 70 66 66 65 61 60 60 64 74 84 81 70 61 54 51 51 50 51 53 54 53 51 47 40 33 44 62 69 70 62 43 34 39 42 39 38 36 29 21 18 17 16 16 15 14 14 13 13 14 14 14 15 15 14 14 14 13 13 13 13 14 14 14 14 14 15 15 15 16 17 19 22 26 30 33 36 38 39 40 42
75 75 78 79 77 74 70 69 67 63 60 60 65 74 80 78 70 60 53 51 52 53 56 56 58 57 55 51 43 41 57 71 72 67 55 39 39 50 48 39 33 26 20 18 18 18 17 16 15 15 15 15 15 15 17 17 18 17 16 15 15 15 14 14 14 14 14 15 15 15 16 16 16 17 18 19 19 21 23 25 27 29 32 34 35
73 75 80 80 78 76 73 70 67 63 60 59 61 65 70 72 68 60 55 54 56 59 61 60 62 62 59 58 55 60 72 76 71 61 52 48 51 55 48 35 26 22 20 20 19 18 17 17 16 15 15 16 17 18 19 20 20 20 18 16 15 16 15 15 15 15 15 16 16 16 16 16 17 18 19 19 19 19 20 21 21 22 24 26 27
71 74 80 80 78 76 73 70 65 61 58 54 55 62 68 70 68 63 60 60 62 65 65 65 66 66 66 68 70 75 79 75 66 56 55 59 55 46 36 27 23 23 22 20 19 18 18 17 16 16 16 17 18 20 20 19 20 21 21 19 18 18 17 17 17 17 17 17 18 18 17 18 18 19 19 19 19 18 19 19 19 20 21 22 23
73 74 78 78 74 71 70 70 64 60 57 51 58 70 72 71 70 68 67 68 70 69 69 71 71 71 73 75 78 80 77 70 61 58 61 58 44 32 25 24 24 23 21 21 20 18 18 18 17 17 18 18 18 19 19 19 19 19 19 20 20 20 20 19 19 18 17 18 18 18 19 19 19 19 19 18 18 18 18 18 18 19 20 21 22
76 74 77 77 71 66 66 67 62 57 56 56 67 76 73 71 72 72 76 77 76 75 76 75 76 76 76 77 80 79 72 65 64 65 58 43 30 25 24 24 23 22 22 21 20 19 19 18 17 18 18 18 18 18 19 19 19 18 17 17 17 18 19 19 19 18 18 18 19 20 20 20 19 18 18 17 16 17 17 17 18 18 19 20 21
75 73 76 77 70 66 65 62 57 56 56 63 76 78 69 69 74 76 79 81 82 83 79 77 80 80 78 78 77 73 68 63 61 56 42 29 24 24 23 23 23 23 23 21 20 20 19 18 19 19 18 18 18 20 20 19 18 16 14 13 12 12 12 13 14 14 14 15 16 18 18 19 19 19 18 17 17 17 17 17 17 17 18 19 19
73 74 75 77 73 68 63 57 56 57 57 70 84 80 70 72 78 82 81 80 85 85 80 80 83 81 78 77 72 67 65 59 48 37 29 25 24 23 23 23 23 23 23 21 20 19 18 19 19 19 18 19 20 21 20 19 18 15 12 10 8 7 6 6 6 6 6 7 7 8 10 11 12 13 14 14 14 14 14 14 13 12 12 13 13
72 73 74 76 73 70 63 56 55 56 60 77 88 85 82 83 84 86 87 84 84 83 80 81 82 80 79 76 70 65 62 56 41 29 25 25 23 23 24 24 24 24 23 21 19 19 19 19 19 19 19 20 21 21 20 20 18 16 13 11 8 6 5 4 4 2 1 1 1 2 2 3 3 4 4 4 5 5 5 5 4 4 4 4 4
71 70 72 72 70 70 65 57 54 55 66 82 87 87 89 84 77 81 87 85 84 85 83 81 81 80 80 75 66 63 60 51 36 26 24 24 23 24 24 24 24 23 22 20 20 20 19 19 18 19 21 21 21 20 20 20 19 18 16 14 11 9 7 5 4 3 2 1 1 1 0 0 0 0 1 0 1 1 1 1 0 1 1 0 1
70 68 69 67 66 68 63 56 53 58 71 82 86 89 85 74 74 83 87 84 84 89 88 85 81 76 76 70 62 62 56 42 30 25 25 24 24 25 24 24 23 21 21 21 20 20 18 18 19 21 22 21 20 20 21 21 20 19 17 15 13 11 9 7 5 4 3 2 1 1 1 1 1 0 1 1 1 1 0 1 0 1 1 0 1
69 67 66 62 62 63 60 55 54 63 75 82 89 90 80 73 79 86 87 83 83 87 87 86 82 73 68 64 60 57 47 33 28 27 25 24 24 25 24 23 21 21 22 21 21 19 18 19 20 22 21 20 20 21 21 20 20 19 17 16 15 13 11 8 6 3 2 2 2 1 1 1 1 1 1 1 1 1 1 1 1 1 1 1 1
68 67 64 61 60 60 60 57 58 67 75 85 94 91 83 82 85 85 83 82 83 84 83 84 77 63 57 54 50 45 37 31 30 28 25 24 24 24 22 21 21 22 23 22 21 19 19 20 21 21 20 20 20 21 21 21 19 18 17 16 14 12 9 6 4 2 1 1 1 1 1 1 1 1 1 1 1 1 1 1 1 1 1 1 1
67 65 63 62 62 61 62 61 64 71 78 90 95 85 82 86 88 88 83 80 82 83 85 84 70 55 51 48 43 38 35 33 31 27 25 24 24 22 22 22 23 24 23 21 20 18 19 20 21 20 20 20 20 21 21 20 19 18 17 15 13 11 8 5 3 2 1 1 1 1 1 1 1 1 1 1 1 1 1 1 1 1 1 1 1
Wind_Speed
6 9 9 9 9 9 9 8 7 8 8 9 9 9 9 10 9 8 8 9 10 11 12 13 14 15 15 15 15 15 15 14 14 14 14 14 13 13 14 13 13 12 11 10 10 9 9 9 9 8 9 9 9 10 10 10 11 11 10 10 10 10 9 9 8 8 8 7 7 7 8 10 11 13 14 15 15 15 15 15 15 16 16 15 16
2 8 9 9 9 10 10 8 7 7 8 8 8 8 8 8 8 7 7 7 9 10 11 12 13 14 14 14 14 14 13 13 13 13 13 13 13 13 13 13 13 13 12 11 10 10 10 10 10 10 10 10 10 11 11 10 10 10 9 9 9 9 8 8 8 8 8 7 7 8 10 11 12 13 14 15 15 15 15 15 15 15 15 15 14
5 7 8 9 8 9 10 9 7 7 7 7 7 6 6 6 6 6 6 6 7 8 9 11 12 12 13 13 13 12 12 12 12 12 12 11 12 12 13 13 13 13 13 13 11 11 10 10 10 11 11 11 11 11 11 11 10 10 10 11 11 11 10 10 10 9 9 9 9 10 12 13 14 14 14 15 15 15 15 14 14 14 14 13 13
7 8 8 8 8 9 11 10 8 7 7 7 6 5 4 4 4 4 4 5 5 6 8 9 10 11 11 12 11 11 11 11 11 11 11 10 11 11 11 12 13 13 13 13 13 12 12 11 11 12 12 12 12 12 12 12 12 12 13 13 14 13 13 12 11 11 11 11 12 13 14 15 15 14 14 14 14 14 13 13 13 13 13 12 12
8 11 9 8 8 9 11 11 9 8 7 7 6 5 4 3 3 3 3 3 4 5 6 8 9 10 10 10 10 10 10 10 10 10 10 9 9 10 10 11 12 12 13 14 13 13 13 12 12 13 13 13 13 14 14 14 14 15 16 16 15 14 13 12 11 11 12 12 13 13 14 14 14 14 14 13 13 13 12 12 12 12 12 11 11
9 11 10 9 8 9 11 11 10 9 8 7 6 6 4 3 2 2 2 2 3 4 5 7 8 9 9 9 9 9 9 9 9 9 8 8 8 9 9 10 10 11 12 13 13 13 13 13 13 13 13 13 14 14 13 14 15 16 17 16 15 14 12 12 11 11 11 12 12 12 13 13 13 13 13 12 12 12 11 11 11 11 11 10 10
9 11 11 10 9 9 11 12 11 9 8 8 7 7 6 4 3 2 1 1 2 4 5 6 7 8 8 9 9 8 8 8 8 8 8 7 7 8 8 9 9 10 11 12 12 13 13 13 13 13 13 13 13 13 13 14 16 16 16 15 14 13 12 11 11 11 11 11 12 12 12 12 12 12 12 11 11 10 9 9 9 9 9 9 9
10 11 12 11 10 10 11 12 12 10 9 8 8 7 7 6 4 3 2 1 2 3 5 6 6 7 7 8 8 8 7 7 7 7 7 7 7 7 7 8 8 9 10 10 11 12 13 13 13 13 13 13 13 13 14 14 15 15 15 15 14 13 13 12 11 11 11 10 11 11 11 10 10 10 10 9 9 8 7 7 7 7 6 6 6
9 10 11 11 12 12 12 12 12 11 10 9 9 8 8 7 6 5 4 3 3 4 5 6 6 6 6 7 7 7 7 6 6 6 6 6 6 6 7 7 7 8 8 9 10 11 12 12 13 13 13 13 13 13 13 13 14 14 14 14 13 13 13 12 11 11 10 9 9 9 9 9 9 8 8 7 7 6 5 5 5 5 5 5 5
7 9 10 11 12 13 12 12 13 12 11 10 10 9 9 8 8 7 6 5 5 4 5 6 6 6 6 6 7 7 6 6 5 5 5 5 5 5 6 6 6 7 7 8 9 10 10 11 11 12 12 12 12 12 12 12 12 12 12 12 12 12 11 11 10 10 9 8 8 8 7 7 7 6 6 5 5 5 5 5 6 6 6 6 6
7 8 9 11 12 13 13 13 14 13 13 12 11 10 10 9 9 9 8 7 6 5 6 6 7 6 6 6 6 6 6 5 4 4 4 4 4 5 5 5 5 6 6 7 7 8 9 9 10 10 10 11 11 11 11 11 11 11 11 10 10 9 9 9 8 8 7 7 7 6 6 5 5 5 4 4 5 5 5 6 6 7 7 8 8
6 8 9 10 11 13 14 15 16 15 15 13 12 12 11 10 10 10 9 8 7 7 6 6 6 6 6 5 5 6 6 5 4 4 4 3 3 4 4 4 4 5 5 5 6 6 7 8 8 8 8 9 9 9 10 10 10 10 10 9 9 8 7 7 6 6 6 6 6 6 6 5 5 5 5 5 5 5 6 6 6 7 8 9 9
5 6 7 8 9 12 14 17 18 18 17 16 14 13 12 12 12 11 10 9 8 7 7 6 6 6 5 5 5 5 5 5 4 3 3 3 3 3 3 3 3 4 4 4 4 5 5 6 6 7 7 7 7 7 8 8 8 8 8 7 7 7 6 6 5 5 5 4 5 5 6 7 7 6 6 6 6 6 7 7 8 8 9 10 10
4 5 5 6 8 11 15 18 20 20 19 18 16 15 14 14 13 12 11 10 9 8 7 6 6 6 5 5 4 5 5 5 4 3 3 2 2 2 2 2 3 3 3 3 3 3 4 4 5 5 5 5 5 5 6 6 6 6 6 6 6 6 5 5 5 5 4 4 4 4 5 6 6 7 7 7 7 7 8 8 9 9 10 10 11
5 4 4 5 7 11 15 19 22 23 22 20 18 17 16 15 15 13 12 11 9 8 7 6 5 6 6 5 4 4 5 5 4 2 2 2 2 1 1 1 2 2 2 2 1 1 2 2 3 3 3 3 4 4 4 4 5 4 5 5 5 6 6 6 6 6 6 6 6 6 7 7 6 7 7 7 7 7 8 8 9 10 10 11 11
6 5 5 6 7 10 14 19 24 25 24 22 20 18 18 17 16 14 13 12 10 8 7 6 5 6 6 5 5 4 5 5 4 2 2 2 1 1 0 0 1 1 1 1 0 0 0 1 1 2 2 3 3 4 4 4 4 4 4 4 5 6 7 7 8 8 9 9 9 9 9 9 9 8 9 9 8 8 8 9 9 10 11 11 11
7 6 7 7 8 10 13 18 24 26 25 24 22 20 19 18 17 16 14 12 10 9 7 6 5 5 6 6 5 5 5 6 5 3 2 2 1 1 1 1 1 1 1 2 1 1 1 2 2 2 3 3 3 4 5 5 5 5 5 4 4 5 7 8 8 9 9 10 10 11 12 12 12 11 11 10 10 10 10 10 10 11 11 12 12
7 7 7 7 8 10 13 16 21 26 27 25 23 22 20 19 18 17 15 13 11 9 7 6 5 5 6 6 6 5 5 6 5 4 3 2 2 2 2 2 2 2 2 3 3 3 3 4 4 4 4 5 5 6 6 6 7 6 7 7 7 7 7 8 9 9 9 9 10 12 13 14 14 13 12 12 12 12 12 12 12 12 13 13 14
7 7 7 7 8 9 12 14 18 23 26 26 24 23 21 20 19 17 15 13 11 9 8 6 5 5 6 6 6 6 6 6 6 5 4 3 3 3 3 3 3 3 4 4 4 5 5 5 6 6 6 7 7 7 8 8 9 9 9 9 10 10 9 10 10 10 10 11 11 12 13 14 14 14 14 13 13 13 14 13 13 14 14 14 15
7 7 7 7 8 9 10 13 15 20 24 25 24 23 22 21 20 17 16 14 11 9 8 6 5 5 6 7 7 6 6 6 6 5 5 4 4 4 4 4 4 4 5 5 5 5 6 6 7 8 8 9 9 9 10 10 11 12 12 12 12 13 13 12 12 12 13 13 13 13 13 13 13 14 14 15 15 15 15 15 15 15 15 16 16
7 7 6 7 8 8 9 11 14 17 22 24 24 23 22 21 19 17 16 14 11 9 8 6 5 5 6 7 7 7 6 6 6 6 5 5 5 5 5 5 5 5 5 6 6 6 7 8 8 9 10 10 11 11 11 12 12 13 14 15 15 15 15 15 15 14 15 15 15 15 15 14 14 15 15 15 16 16 16 16 16 17 17 17 18
8 6 5 7 8 8 9 11 13 16 21 24 23 22 21 20 19 17 16 13 11 9 8 7 6 5 6 7 7 7 6 6 6 6 6 6 5 6 6 6 6 6 6 7 7 7 8 9 9 10 11 11 12 12 13 13 13 14 15 16 16 16 16 16 17 17 16 16 17 17 16 16 16 16 16 16 16 16 17 18 18 18 18 18 18
8 6 6 7 7 8 8 11 13 16 20 23 23 22 21 19 18 17 16 13 11 10 9 8 6 6 7 7 8 8 7 6 6 6 7 7 6 6 7 8 8 8 8 8 8 9 9 10 10 11 12 13 13 14 14 14 15 15 15 16 17 18 18 18 17 17 17 17 18 17 16 16 16 16 16 16 16 17 17 18 17 17 17 17 17
10 8 7 7 8 8 8 11 14 17 20 22 22 20 20 19 18 18 16 14 12 11 10 8 7 6 7 8 8 8 7 7 7 8 8 8 8 8 8 9 10 10 9 9 9 10 10 11 12 12 13 14 14 15 16 16 16 16 16 16 17 18 18 18 17 17 17 17 18 17 16 15 15 15 15 15 16 16 17 17 17 17 17 17 17
10 9 8 9 10 9 9 11 15 18 20 21 20 20 20 19 19 18 16 14 12 11 10 9 7 8 8 9 9 9 8 8 8 9 9 9 9 9 9 10 11 11 11 10 10 10 11 12 12 13 14 15 15 15 16 16 16 16 16 16 16 17 18 18 18 17 17 17 17 17 17 16 16 16 16 16 17 17 17 17 18 19 19 19 19
11 10 10 10 11 10 10 12 15 17 20 21 20 20 21 20 20 18 16 14 12 11 11 9 8 9 10 10 10 9 9 9 10 10 11 10 9 9 10 10 11 11 11 11 11 11 11 12 13 13 14 14 14 14 14 14 15 15 15 15 16 17 17 18 18 17 17 16 17 18 18 18 17 17 17 18 18 18 19 18 19 20 19 19 20
13 12 11 10 11 11 11 12 14 18 21 22 22 22 22 21 20 19 17 14 12 12 11 10 10 10 10 10 10 10 10 11 11 11 11 11 10 10 11 11 11 11 11 10 10 10 11 11 11 11 12 12 12 12 12 12 13 13 14 15 16 17 17 18 18 18 18 17 17 18 18 18 17 17 18 19 20 20 19 19 19 20 20 20 20
12 11 10 10 11 11 11 12 14 18 21 22 23 23 22 22 20 18 16 14 13 13 12 11 11 10 11 11 11 11 12 12 12 12 12 11 10 10 11 11 10 10 10 10 10 9 9 9 9 10 10 11 11 12 12 12 13 14 15 16 17 18 18 18 18 18 18 18 17 17 17 17 17 18 18 19 20 20 20 19 19 20 21 21 21
9 9 9 10 12 12 11 12 15 19 21 22 22 22 21 19 17 16 14 14 14 14 12 11 11 11 12 12 13 13 13 13 13 12 12 12 11 11 11 11 10 9 9 9 9 8 8 8 9 9 10 10 12 12 13 14 15 16 17 18 18 18 19 19 19 19 19 18 17 17 17 17 18 18 19 19 19 20 20 19 18 20 21 22 23
9 10 11 10 11 11 12 13 15 18 19 20 20 19 17 15 15 15 14 15 16 14 12 12 12 13 13 13 14 14 13 14 13 13 12 12 11 12 12 11 9 9 8 7 8 8 8 9 10 10 11 12 13 13 14 15 16 17 17 18 18 19 19 19 19 19 19 18 17 17 18 18 18 18 18 18 18 18 19 18 18 19 20 22 22
11 11 10 10 10 10 11 12 14 16 17 17 18 16 14 14 14 15 16 17 16 14 14 14 14 14 14 14 14 14 14 14 13 12 12 12 12 12 11 9 8 7 7 7 7 8 9 10 11 11 12 13 13 13 13 13 14 15 16 17 18 18 18 18 18 17 17 17 16 16 16 17 17 17 17 17 17 17 17 18 18 19 20 21 20
12 10 10 10 9 9 11 12 13 14 15 16 16 14 13 14 15 15 17 17 16 15 16 16 15 14 15 15 15 15 14 14 13 13 12 12 13 11 9 8 7 6 6 7 8 9 9 9 9 9 10 11 11 12 12 12 13 14 14 15 15 15 15 15 15 15 15 14 14 14 14 15 15 15 16 16 17 17 16 17 17 18 19 20 21
12 12 11 10 9 11 12 12 13 15 16 16 15 14 14 14 13 13 15 15 15 16 17 16 15 15 15 15 16 15 15 14 13 13 13 13 12 10 8 7 7 6 6 6 7 7 7 7 7 8 9 10 11 12 12 12 12 13 14 14 13 13 13 13 14 14 14 13 13 13 14 14 15 16 16 17 17 17 17 17 18 18 18 19 20
14 14 12 11 12 14 14 14 15 17 17 16 15 14 13 12 10 11 12 13 14 16 16 16 15 16 16 16 17 16 15 14 14 14 13 12 10 8 7 7 6 5 4 5 6 6 6 7 8 9 10 11 12 12 12 12 12 14 15 14 14 13 13 13 13 13 13 13 14 14 14 15 15 16 17 17 17 17 17 18 18 19 19 19 19
16 14 12 12 15 16 16 16 17 17 17 16 15 14 12 10 8 9 11 13 14 15 15 15 16 17 17 17 17 16 15 14 14 14 13 11 9 8 7 6 5 4 4 5 6 6 7 8 9 10 11 12 12 12 11 11 12 13 14 14 14 13 14 14 14 14 14 14 14 15 15 15 16 16 17 17 17 18 18 18 18 18 19 19 18
16 14 13 14 16 18 17 17 17 17 18 17 15 13 11 8 8 10 12 14 14 15 15 16 17 17 17 17 17 15 15 14 14 13 11 10 8 7 6 5 4 4 5 6 6 7 8 8 8 10 11 11 11 11 11 10 11 12 13 13 13 14 14 14 15 15 15 15 15 16 16 16 16 17 17 17 18 18 19 19 19 19 19 18 18
16 15 14 14 15 18 17 16 16 17 18 17 15 13 10 7 8 11 13 14 15 15 16 17 18 17 17 17 16 15 14 14 13 12 10 8 7 5 5 4 5 5 5 6 7 8 8 8 8 9 9 9 9 10 10 10 11 12 13 13 13 14 14 14 14 15 15 16 16 16 16 17 17 18 18 18 18 19 20 20 21 21 21 20 20
17 16 15 15 16 17 17 16 17 18 19 18 15 12 9 7 9 12 14 15 15 16 16 17 17 17 17 16 16 15 14 13 12 11 9 8 6 4 4 4 5 5 5 6 7 8 8 8 8 8 8 8 8 9 9 10 11 12 12 13 13 14 14 14 14 15 16 16 16 16 17 17 18 19 19 20 20 21 21 22 22 22 22 22 22
17 17 17 17 18 18 18 18 19 20 20 19 16 12 8 8 11 14 15 16 16 16 17 17 17 17 17 16 16 14 13 13 11 10 8 7 5 5 5 5 5 4 5 5 6 7 8 7 7 7 7 7 8 8 9 10 11 12 13 12 13 14 15 14 15 16 16 16 17 17 18 19 20 20 21 21 23 23 23 23 23 23 23 24 24
18 18 18 18 20 20 20 21 21 21 21 20 16 12 9 9 12 14 16 16 16 16 17 17 17 17 16 16 15 14 13 12 10 9 7 6 6 6 6 5 4 4 4 5 6 6 6 7 7 7 7 7 8 9 10 10 12 13 14 14 13 14 15 16 16 17 17 17 17 18 19 20 21 22 22 23 24 25 25 25 24 24 24 25 25
20 20 19 20 21 21 22 23 23 23 22 20 15 11 9 10 12 14 15 15 15 17 17 17 17 16 16 15 14 12 11 10 9 8 7 6 6 6 6 5 4 4 4 5 6 5 5 6 7 7 8 8 9 10 11 11 12 12 14 15 15 15 16 16 17 17 17 18 19 19 20 20 21 22 23 25 26 27 27 26 26 26 27 26 26
21 21 20 21 22 22 24 24 24 23 22 18 14 11 10 11 12 13 15 16 17 18 17 16 16 16 15 14 13 11 10 9 9 8 8 7 7 6 5 5 4 4 4 5 5 5 5 6 7 7 8 8 9 10 11 12 12 12 12 13 15 16 17 17 17 18 18 19 20 20 21 21 22 23 25 27 27 28 28 28 28 28 28 28 28
22 22 21 22 23 23 24 25 25 23 21 17 14 12 12 13 14 15 16 17 18 18 17 16 16 16 14 12 12 10 9 9 9 8 7 6 6 5 5 5 5 4 4 5 5 5 6 7 7 7 8 9 10 10 11 12 13 14 14 14 14 15 17 18 19 21 21 21 21 21 22 23 24 25 27 28 28 29 29 30 30 30 30 30 30
23 23 22 23 23 22 23 25 26 24 20 18 16 16 16 17 17 18 18 18 18 17 16 15 15 14 12 11 11 10 9 9 8 8 6 5 5 5 5 5 5 5 5 4 5 5 6 6 6 7 8 9 9 10 12 14 15 17 17 17 16 15 15 16 17 20 21 21 21 22 23 24 25 25 27 28 29 29 31 31 31 31 31 31 32
24 23 23 24 23 22 24 27 26 23 21 19 18 19 20 19 19 19 19 18 17 16 14 13 13 12 11 11 11 11 10 9 8 6 5 5 5 5 5 5 5 5 5 5 6 6 5 5 6 7 7 8 9 12 14 16 17 18 18 18 18 17 16 15 15 16 17 18 18 20 22 23 24 25 26 27 28 29 30 31 31 31 32 32 33
24 23 23 24 24 23 25 28 27 24 22 20 20 22 21 20 19 18 18 16 15 14 13 13 12 11 11 11 11 11 11 9 7 5 5 5 5 5 5 5 6 6 6 7 6 6 5 5 5 6 6 7 10 13 16 17 18 19 19 19 19 18 18 17 16 15 15 16 17 18 19 20 21 22 23 24 24 25 27 28 29 29 30 31 32
24 22 23 24 24 24 26 28 27 25 23 22 23 23 21 19 18 17 17 15 14 14 12 11 11 11 12 13 13 12 11 9 7 5 5 5 4 4 5 6 6 7 7 7 6 5 5 4 4 5 6 8 11 14 17 18 19 19 19 20 20 20 20 19 18 17 15 16 18 19 20 22 22 21 22 22 23 23 25 26 27 28 29 30 31
23 23 23 23 23 25 27 29 28 25 24 24 24 22 20 19 18 17 17 15 14 14 12 10 11 12 13 14 13 12 10 8 7 6 5 5 5 4 5 6 7 8 8 7 6 5 4 4 3 4 7 9 12 15 17 18 19 19 20 21 22 22 22 22 22 21 19 18 18 19 21 23 25 24 24 24 24 24 25 26 27 28 29 30 31
24 23 22 22 24 27 29 30 29 27 26 26 24 20 19 19 18 17 15 13 14 14 13 12 11 11 12 13 12 11 9 8 8 6 5 5 5 5 6 7 7 8 7 7 6 5 4 3 4 5 8 11 13 15 16 17 18 19 20 22 23 24 25 25 25 24 23 22 20 20 19 21 24 27 28 27 27 27 28 28 29 30 30 31 32
25 24 23 24 26 28 29 30 30 28 28 27 22 18 18 18 18 16 14 13 14 15 16 15 13 11 11 11 10 10 9 8 7 6 5 4 5 5 6 7 7 7 7 7 6 5 4 4 5 7 10 12 13 14 16 17 18 19 21 22 24 25 25 25 25 24 24 23 22 22 21 21 22 24 27 30 31 31 31 31 31 32 32 32 33
26 25 25 26 27 28 29 29 30 29 29 25 19 18 19 18 18 16 15 15 16 18 17 15 14 12 10 10 9 9 9 8 6 5 4 5 5 5 6 7 7 7 7 7 6 5 5 5 7 9 11 13 14 15 16 17 18 19 21 22 23 24 24 24 24 24 23 23 22 21 21 21 22 23 24 27 29 31 33 33 34 34 34 34 34
Wind_Direction
182 187 177 171 160 147 145 146 141 129 122 116 115 108 104 97 89 76 65 60 55 50 45 44 43 42 43 43 43 43 44 45 47 46 45 46 48 49 50 51 51 53 57 64 67 67 66 66 65 64 62 63 64 66 66 66 67 68 68 67 65 65 61 58 57 57 56 53 50 54 70 82 83 83 85 84 82 80 77 75 73 72 71 69 68
198 189 181 176 165 153 152 154 151 140 131 124 122 113 108 102 96 83 68 59 54 49 43 40 38 38 39 41 42 42 43 43 45 46 45 44 46 47 49 52 53 54 57 62 68 70 70 70 70 71 70 70 70 70 69 67 66 66 66 64 63 63 62 59 57 55 52 51 58 73 83 84 83 83 83 83 83 81 79 77 75 73 71 69 67
201 194 186 181 173 159 159 162 161 150 142 135 132 124 116 109 103 91 74 58 52 47 41 37 34 35 35 37 39 41 41 42 43 44 45 44 44 46 48 51 53 55 57 60 63 68 71 72 74 76 77 76 74 73 72 69 68 68 68 67 65 63 62 61 60 61 62 64 72 85 88 85 82 81 80 80 80 79 78 76 74 72 69 67 65
194 202 194 188 182 167 165 169 171 161 154 149 147 142 132 123 111 98 81 59 47 42 39 33 29 30 31 32 35 38 40 40 41 41 43 43 44 45 47 49 53 56 58 61 63 66 70 75 78 81 82 82 80 78 77 76 76 74 71 68 64 61 60 61 64 71 77 80 82 85 86 86 84 81 79 78 77 75 74 73 71 68 66 62 60
190 202 204 197 192 176 171 175 180 173 167 164 164 162 157 150 129 107 83 58 42 34 33 29 24 24 25 27 29 33 36 39 38 39 40 42 44 44 47 49 52 56 59 62 64 67 71 75 79 82 85 86 85 84 84 83 80 73 66 62 60 59 60 64 71 77 84 87 87 87 87 87 85 82 78 76 74 72 70 68 67 64 61 57 54
194 201 207 206 200 188 179 180 186 182 178 177 179 178 177 181 165 133 85 53 33 22 19 20 20 19 19 21 22 26 31 35 35 36 37 40 43 45 48 50 52 56 61 63 65 68 70 73 76 79 81 83 85 87 87 83 75 68 62 58 57 59 63 68 74 81 85 87 88 87 86 86 85 83 78 75 71 68 66 63 62 60 57 53 50
197 202 208 211 208 201 190 186 190 191 187 186 191 191 191 198 197 189 123 32 9 4 3 7 12 14 14 15 15 18 24 29 31 32 34 37 42 45 49 51 54 56 62 65 67 69 70 71 73 75 76 77 80 82 80 76 72 68 63 60 59 60 64 68 73 78 82 85 86 85 84 84 84 84 82 78 75 71 68 65 63 58 54 49 45
199 202 210 216 215 213 203 195 196 200 197 193 199 201 201 206 214 218 229 276 329 342 344 352 360 6 9 9 9 10 16 23 25 28 30 34 40 45 49 51 55 58 63 66 68 69 70 70 71 73 73 73 74 75 75 75 74 72 68 64 62 63 65 67 70 74 78 82 84 86 85 85 83 83 82 79 76 73 67 64 63 57 50 42 33
202 203 214 221 222 222 214 207 204 207 207 203 203 207 210 212 222 231 240 257 290 320 332 339 347 355 2 3 2 2 6 15 20 23 25 31 38 45 49 53 57 58 62 66 68 69 70 69 70 72 72 72 72 73 74 75 77 77 75 71 67 66 67 67 68 69 70 73 76 81 82 82 81 79 77 75 71 64 54 46 42 39 32 22 13
211 214 222 224 227 227 224 220 214 215 214 212 208 211 216 219 227 235 243 253 272 299 320 330 337 343 352 356 354 354 357 6 14 19 21 28 37 47 51 54 58 60 62 65 69 69 70 69 68 70 71 72 72 73 72 73 75 77 78 77 74 70 69 68 66 65 62 59 59 64 68 68 69 68 64 59 53 42 29 17 9 3 0 354 348
217 222 227 228 228 229 231 230 225 222 220 218 215 214 219 224 230 236 242 251 267 286 307 322 330 334 341 347 346 345 347 357 4 14 18 24 35 47 53 56 58 61 63 63 68 69 70 71 68 67 67 68 69 70 69 68 68 70 73 74 74 71 69 67 64 60 53 47 39 38 42 42 40 41 36 28 19 11 3 356 348 343 341 339 336
221 227 232 234 233 234 237 236 232 227 224 222 219 218 221 227 233 237 242 251 265 279 294 310 321 327 332 334 336 337 339 347 357 4 10 17 31 47 56 60 60 61 65 63 65 68 70 71 71 68 67 66 66 67 67 66 64 64 66 67 66 63 62 61 58 52 45 36 22 13 11 7 5 6 6 3 358 353 350 347 345 341 339 339 338
222 237 239 240 241 242 241 238 234 229 226 224 222 221 222 229 235 238 242 251 262 272 285 298 311 318 321 324 325 330 332 337 346 354 359 7 19 41 57 67 68 64 68 66 64 67 69 70 71 71 69 67 65 65 68 70 68 64 59 56 56 55 54 52 45 38 34 24 11 2 356 352 350 349 351 351 349 346 345 344 343 342 341 340 339
218 229 237 246 248 246 242 240 235 230 227 225 224 223 224 230 235 238 242 249 258 266 276 285 300 312 312 313 314 321 326 327 333 342 348 353 1 23 52 73 78 74 73 72 64 65 67 67 67 67 65 63 62 61 62 63 65 64 53 40 35 33 31 28 25 15 7 360 353 347 343 340 338 336 337 337 337 337 338 337 336 338 338 336 334
219 216 234 252 253 250 244 240 236 230 226 225 224 224 226 230 234 237 241 247 253 261 269 276 291 306 305 301 302 314 319 315 317 323 331 336 339 353 38 78 91 88 87 86 68 60 59 56 53 49 45 42 40 40 40 37 38 45 42 26 11 5 1 356 352 347 340 336 332 327 324 322 319 319 319 319 321 322 325 327 328 329 328 328 327
213 217 238 250 255 255 248 241 236 230 225 224 224 225 227 229 233 236 241 246 250 258 263 269 285 300 300 296 295 306 310 302 298 297 302 310 314 316 313 120 138 128 124 135 108 7 4 358 359 359 358 355 358 1 5 6 4 5 8 7 357 348 343 340 335 331 327 324 322 321 320 317 311 307 308 307 305 307 312 316 318 317 316 315 316
214 225 239 250 261 261 253 243 235 230 224 222 223 225 227 229 233 237 240 244 248 255 258 263 280 297 295 291 293 297 298 292 286 280 280 279 279 283 264 249 222 204 190 190 219 247 260 274 279 288 299 306 312 320 329 336 336 333 331 333 337 333 328 325 322 318 315 315 317 318 317 316 312 308 307 307 303 301 304 308 308 306 306 305 306
225 237 248 262 269 265 256 245 236 230 226 223 222 224 226 228 232 236 239 243 247 251 253 259 277 296 294 289 289 290 287 283 281 274 269 267 261 259 251 247 242 235 225 218 227 236 250 260 266 271 276 283 288 295 305 315 320 321 322 322 321 321 320 319 317 312 309 310 313 314 314 312 311 308 307 307 304 301 302 303 302 301 301 300 300
241 250 260 268 269 266 256 246 236 229 227 225 223 224 225 227 231 234 238 243 246 248 251 258 277 296 294 288 283 282 281 279 279 276 271 266 260 256 248 244 244 246 242 237 239 241 251 259 265 269 271 276 279 285 294 302 308 313 316 317 318 318 320 321 320 317 314 312 311 311 311 308 305 303 302 301 299 299 300 300 299 299 298 298 298
254 260 264 265 269 268 256 244 234 228 226 224 223 225 226 228 231 234 240 244 244 246 251 256 273 292 290 282 278 278 279 279 278 278 278 270 265 260 253 249 247 250 253 254 258 261 265 268 270 272 273 276 280 283 288 294 300 305 310 312 314 318 320 321 321 319 317 314 312 312 312 308 303 300 298 297 297 297 298 298 299 300 300 300 300
261 261 267 279 284 279 263 246 236 228 223 222 223 225 228 231 233 237 242 244 243 245 248 250 261 278 280 275 274 276 276 278 277 275 276 271 267 264 257 255 252 250 256 262 268 271 271 273 275 277 279 281 284 287 289 293 298 301 305 308 311 314 316 316 316 316 316 315 315 315 315 312 306 301 298 297 297 297 297 298 300 301 302 302 302
259 263 290 308 302 288 269 248 236 228 221 221 223 225 229 232 235 240 243 242 241 243 243 244 250 263 270 270 270 272 273 273 272 270 269 267 264 264 262 258 257 255 256 259 263 266 268 272 276 279 282 283 285 286 289 291 295 298 301 305 307 309 310 311 313 313 314 315 315 315 316 315 309 303 300 298 297 295 296 298 300 302 302 302 302
252 268 304 318 304 285 263 244 232 226 220 219 221 224 228 232 235 239 240 237 237 238 240 242 246 257 263 264 265 264 266 266 264 263 260 259 258 260 263 261 260 259 259 261 262 265 267 270 274 276 278 280 283 284 287 289 292 296 299 303 304 306 307 308 310 311 312 312 311 312 314 315 310 304 300 298 297 297 299 300 301 302 301 301 302
251 266 292 308 296 274 253 237 228 223 218 217 219 222 226 230 233 235 234 232 233 235 238 240 245 255 259 258 259 258 259 262 262 260 257 254 253 256 261 263 263 262 262 264 266 269 272 276 278 279 280 282 284 286 287 290 293 296 299 301 302 302 303 304 305 306 308 308 307 309 313 312 307 303 301 300 301 302 302 302 303 304 305 305 306
257 269 285 298 292 271 249 234 226 220 215 214 217 221 225 228 231 231 230 230 232 234 235 238 245 252 254 254 253 254 255 260 263 260 258 255 257 261 265 268 268 268 268 269 272 277 279 282 283 283 285 285 285 286 287 289 291 292 294 295 295 296 297 299 301 302 304 305 307 310 312 310 304 301 301 302 304 304 303 302 302 306 309 307 305
264 268 275 282 282 269 250 237 228 221 216 212 214 219 223 226 228 229 229 230 230 232 233 235 243 248 250 251 251 252 253 256 259 258 258 258 262 268 271 272 273 273 275 276 277 279 281 284 285 284 284 285 285 285 284 285 286 287 288 289 290 292 294 296 299 301 304 306 307 308 308 307 304 301 301 302 302 302 302 302 303 305 306 305 304
258 260 267 272 272 261 248 239 233 226 218 214 215 218 222 224 226 228 229 228 228 229 229 232 239 246 248 248 248 248 250 253 255 256 257 259 265 272 276 277 278 279 278 279 278 277 282 286 287 286 285 287 289 289 288 287 288 289 290 290 291 293 295 296 299 302 305 306 305 304 303 303 302 300 300 301 301 303 304 305 305 305 304 303 305
249 257 268 268 261 253 246 239 234 228 222 220 220 221 223 225 228 231 231 230 230 228 227 232 239 244 245 244 243 243 247 250 253 255 257 261 268 273 277 278 280 282 280 277 278 280 284 288 290 290 292 294 295 296 296 296 296 296 295 295 297 297 298 298 299 301 302 302 302 301 300 300 301 301 302 302 303 305 306 307 307 307 308 307 308
244 255 265 261 253 248 245 240 234 229 224 223 221 222 224 227 232 236 237 235 233 229 228 233 237 241 242 239 239 240 244 247 250 253 258 264 270 275 277 279 282 283 279 277 282 286 288 291 294 296 298 299 299 301 304 305 304 303 302 301 301 300 299 299 298 298 298 299 300 301 302 303 304 304 304 303 303 304 305 308 306 306 308 309 312
239 247 253 251 249 248 244 235 226 223 222 221 219 221 224 230 236 240 242 239 235 232 231 232 232 235 237 237 237 239 242 244 247 252 260 267 270 274 276 277 279 280 281 283 286 292 298 303 305 307 307 306 306 307 308 307 306 305 303 301 300 299 298 296 295 296 298 300 302 304 306 307 307 306 306 305 304 303 305 308 305 305 307 309 313
237 247 249 244 242 237 228 215 210 213 215 217 218 220 224 230 237 240 241 240 238 235 232 229 228 230 233 234 235 238 242 244 246 252 259 265 268 270 269 269 271 277 284 289 294 301 307 310 309 308 307 306 306 306 305 304 303 301 301 300 300 299 299 299 301 303 306 308 310 311 311 312 312 312 311 310 309 308 310 310 308 308 310 312 313
242 253 249 236 225 209 196 190 192 200 207 213 216 217 221 228 234 238 240 242 241 236 230 227 226 226 229 231 233 236 240 243 247 253 257 261 265 263 260 260 263 271 285 297 306 307 306 306 304 302 302 303 305 307 307 306 303 303 304 305 306 308 311 314 317 320 321 321 321 320 318 318 318 318 318 317 315 315 314 311 310 309 310 313 314
245 250 243 221 202 192 184 183 190 200 207 211 210 210 215 222 229 235 241 239 234 231 228 226 225 224 224 226 232 235 237 242 247 251 253 255 257 257 255 259 266 276 290 304 304 300 301 301 301 303 307 310 312 314 314 312 311 312 315 317 321 325 326 327 329 330 329 328 327 325 323 323 323 323 323 322 321 320 317 313 312 311 312 314 314
240 242 236 213 197 195 193 193 200 208 210 209 205 203 208 214 224 236 239 231 225 226 228 227 223 221 221 223 228 234 237 240 244 246 248 248 246 249 256 266 278 284 290 300 298 296 302 305 310 316 319 319 320 322 321 320 321 322 325 330 334 333 332 332 332 332 330 328 328 328 329 328 327 325 325 324 322 320 319 318 317 317 318 319 317
238 242 232 214 204 201 203 204 210 217 216 212 207 203 204 209 225 238 235 228 226 228 230 229 224 220 219 222 226 230 234 237 241 244 244 240 237 243 254 267 277 276 278 291 296 299 307 315 324 327 326 329 330 332 332 330 328 329 333 339 339 335 335 334 333 332 329 328 329 330 330 328 326 325 324 323 321 320 319 318 319 319 321 322 322
240 243 227 217 210 207 210 213 220 225 221 214 207 203 203 209 226 234 231 229 229 230 230 230 228 225 223 225 227 229 233 237 241 244 240 232 230 239 247 252 259 264 276 289 296 301 309 319 327 330 333 339 340 339 339 337 334 335 340 343 340 338 339 337 334 331 328 327 328 328 328 326 324 323 321 320 318 318 317 318 318 318 319 320 321
236 237 224 219 215 213 216 218 220 221 217 209 202 202 205 214 228 235 236 234 231 231 230 231 231 229 228 228 230 231 234 239 244 244 236 227 227 234 242 244 253 267 282 294 300 303 309 321 331 337 343 348 344 340 338 338 338 338 341 343 340 339 340 338 335 331 328 326 326 327 327 326 324 321 318 316 315 315 315 316 317 317 316 317 317
228 227 221 218 216 217 219 216 214 212 209 205 202 205 212 222 233 240 241 237 234 233 230 230 231 230 230 232 233 234 236 241 246 243 231 225 226 233 241 248 261 276 290 298 301 303 311 327 340 346 350 350 344 340 339 339 341 338 339 340 337 335 335 335 333 329 326 326 326 327 326 325 323 320 318 316 315 315 314 314 314 314 314 314 314
222 219 216 214 212 214 216 213 209 205 204 206 208 212 218 230 240 245 244 239 234 232 230 229 229 229 230 232 235 235 236 242 246 238 226 225 232 240 245 251 264 281 291 296 298 303 316 333 344 348 351 349 343 344 345 342 341 339 339 340 336 333 332 332 330 327 325 325 324 324 323 322 321 319 317 315 315 313 312 312 311 311 312 312 312
218 214 212 211 209 212 215 213 207 202 204 208 212 217 225 236 243 245 244 241 235 232 232 230 228 229 229 231 233 233 234 240 239 226 220 229 238 245 253 261 273 282 286 289 295 304 321 334 338 342 346 350 349 349 349 347 344 340 338 340 341 336 333 333 331 326 324 323 322 321 320 319 318 315 313 311 310 309 309 309 309 310 310 310 310
214 212 211 210 210 212 214 211 205 203 206 210 214 223 233 240 244 246 244 241 238 236 235 232 229 228 227 228 231 231 230 229 223 216 221 232 237 246 258 269 273 273 276 282 293 307 322 330 332 337 345 350 352 351 351 351 349 343 336 336 338 336 332 330 326 321 320 320 319 318 316 314 313 310 308 307 306 306 306 307 307 308 307 307 307
212 212 212 213 211 210 212 209 203 205 209 213 218 226 235 238 238 241 241 238 236 235 233 230 227 228 227 227 229 229 222 213 210 214 223 228 235 248 261 269 268 265 274 284 298 311 317 322 327 335 344 349 355 359 357 354 351 347 340 333 331 329 326 324 319 316 316 317 317 315 313 310 308 306 305 304 305 305 305 306 306 306 306 305 305
211 213 214 214 210 207 210 206 200 205 210 215 221 223 227 232 229 227 230 233 233 231 228 225 225 228 226 224 227 224 210 204 210 217 222 227 240 257 267 272 272 271 282 295 304 307 309 315 323 334 346 354 4 8 3 357 351 347 344 338 332 325 321 320 318 316 318 319 316 313 309 307 305 305 304 304 304 305 305 306 306 306 305 304 303
212 212 213 213 209 207 208 201 199 206 211 216 222 220 220 226 226 224 225 226 226 225 225 223 224 227 224 219 220 211 201 205 212 217 222 233 250 265 277 281 281 284 292 301 300 299 302 310 323 340 353 1 8 7 2 358 354 351 348 344 340 334 328 324 320 317 318 318 315 311 308 306 305 304 304 304 305 306 307 307 307 307 305 304 303
212 211 211 212 212 210 204 200 202 209 215 219 221 220 220 222 223 224 226 225 224 224 225 223 224 227 221 213 207 200 198 205 211 218 229 243 258 273 283 284 286 292 297 299 296 296 301 316 333 347 356 3 3 360 359 359 358 356 353 350 348 345 342 338 332 327 325 322 316 313 310 307 307 306 304 304 304 306 306 305 306 306 306 304 303
211 209 209 210 213 210 205 203 206 213 220 222 222 222 219 218 221 224 227 227 227 229 231 227 225 225 217 207 200 198 201 208 216 230 240 251 268 278 281 282 287 293 297 297 297 301 314 332 344 351 357 356 354 355 358 360 360 358 356 354 351 349 347 344 341 340 339 334 326 322 317 312 311 310 308 307 307 307 305 304 305 305 305 305 304
209 206 206 209 211 209 207 208 211 218 225 224 223 222 220 221 226 230 230 228 228 230 231 229 224 218 210 203 200 201 206 213 225 239 247 262 277 281 281 282 287 292 295 296 300 311 327 340 347 352 352 349 350 354 357 357 357 358 358 356 353 351 348 345 342 341 341 338 333 330 327 322 319 316 314 313 312 310 307 306 307 307 306 305 305
207 205 204 207 208 208 209 211 215 223 227 227 225 223 227 232 231 231 230 225 225 227 225 221 214 208 203 201 202 204 210 218 229 239 251 268 277 277 277 280 286 291 294 298 306 317 329 336 342 345 343 345 350 353 353 352 353 355 356 355 354 352 349 346 344 342 340 339 335 332 330 327 325 323 321 319 318 316 313 312 311 310 309 308 307
207 204 203 204 204 206 209 213 220 226 231 232 228 224 231 234 230 231 229 225 223 221 215 207 201 197 196 198 202 204 211 220 228 236 250 266 270 271 275 281 287 291 296 302 309 316 317 320 330 337 340 345 348 348 346 346 347 349 351 352 352 351 350 347 344 342 339 337 333 329 326 324 322 322 322 323 323 321 319 317 316 314 312 311 309
206 204 202 203 204 207 211 216 223 229 235 235 228 225 229 229 229 226 224 226 221 214 208 196 184 182 183 188 194 200 211 221 228 239 253 265 269 272 279 285 290 295 300 304 305 304 302 313 328 336 341 343 343 341 340 340 342 344 347 349 350 349 347 344 341 338 335 334 332 330 326 322 318 317 317 318 320 320 319 318 316 315 313 311 309
206 204 204 205 208 212 216 222 229 234 238 235 230 232 230 226 229 224 218 218 213 213 208 184 169 172 175 182 190 201 213 221 229 242 254 263 270 276 282 287 293 299 302 301 299 299 305 318 327 332 336 337 336 335 335 335 337 341 344 346 346 344 342 340 337 335 333 333 332 330 329 327 324 320 316 316 317 317 317 316 316 315 313 312 310